sat.trackr.live / text

‹ back to catalog

STARLINK-1912

NORAD 47178 · 2020-088BJ

PAYLOAD ACTIVE UNKNOWN

§ Identity

Operator
Country
US
Launch date
2020-11-25
Launch site
AFETR
Launch vehicle
Mass (kg)
RCS (m²)

Purposes: comms

External: N2YO · Heavens-Above · Gunter

§ Orbital elements

Epoch: 2026-08-31T03:34:04.864224Z

Period
87.79 min
Inclination
53.0145°
Eccentricity
0.0010979
Mean motion
16.40254154 rev/d
Perigee alt
157.9 km
Apogee alt
172.3 km
Semi-major
6,543.3 km
B*
5.9607e-4
RAAN
130.0160°
Arg perigee
253.9741°
Mean anomaly
106.0096°
Rev number
31,964

§ Raw data

STARLINK-19121 47178U 20088BJ  26243.14866741  .08697201  12320-4  59607-3 0  99942 47178  53.0145 130.0160 0010979 253.9741 106.0096 16.40254154319642

JSON: /api/v1/satellites/47178 · /tle

For live sub-satellite position, see the globe view (requires WebGL).

§ Visibility from observer

Set your observer location to see the next 7 days of passes ≥ 10°. The values pass through the URL so the page stays shareable.

No JS? Fill the form by hand. The geolocation button needs JavaScript.